[[{"header":{"parameterUnit":"m.s-1","parameterCategory":1,"la1":30.2991,"la2":30.254,"lo1":-89.0895,"lo2":-89.0444,"dy":0.0017,"dx":0.0017,"nx":28,"ny":28,"refTime":"2025-05-24T21:00:00:Z","depth":0,"parameterNumber":2,"parameterNumberName":"U-component_of_WINDS"},"data":[0,0,0,0,0,0,0,0,0,0,0,0,0,0,0,0,0,0,0,0,0,0,0,0,0,0,0,0,0,0,0,0,0,0,0,0,0,0,0,0,0,0,0,0,0,0,0,0,0,0,0,0,0,0,0,0,0,0,-1.0846,-1.0845,0,-1.0728,-1.0727,-1.0725,-1.0635,-1.0634,-1.0633,-1.0632,-1.0509,-1.0507,-1.0504,0,0,0,0,0,0,0,0,0,0,0,0,0,-1.0992,-1.099,-1.0846,-1.0845,-1.0844,-1.0728,-1.0727,-1.0725,-1.0635,-1.0634,-1.0633,-1.0632,-1.051,-1.0507,-1.0504,0,0,0,0,0,0,0,0,0,0,0,0,0,-1.0907,-1.0989,-1.0847,-1.0785,-1.0778,-1.0729,-1.0727,-1.0725,-1.0635,-1.0634,-1.0632,-1.0631,-1.0511,-1.0507,-1.0504,-1.0506,0,0,-1.0492,-1.0491,0,0,0,0,0,0,0,0,-1.0912,-1.0902,-1.0795,-1.0789,-1.0781,-1.0695,-1.0733,-1.0651,-1.0635,-1.0689,-1.0632,-1.0631,-1.0572,-1.0563,-1.0544,-1.05,-1.0495,-1.0492,-1.049,-1.0488,-1.0487,0,0,0,0,0,0,0,-1.0918,-1.0906,-1.08,-1.0794,-1.0785,-1.0762,-1.0748,-1.0717,-1.0639,-1.0684,-1.0677,-1.0665,-1.0568,-1.0547,-1.054,-1.0493,-1.0492,-1.0489,-1.0486,-1.0485,-1.0446,-1.0447,0,0,0,0,0,0,-1.0934,-1.0912,-1.0803,-1.0796,-1.0845,-1.076,-1.0745,-1.0724,-1.0639,-1.0625,-1.0666,-1.0661,-1.0554,-1.0544,-1.0535,-1.0533,-1.0488,-1.0485,-1.0482,-1.0445,-1.0446,-1.0447,0,0,0,0,0,0,-1.0937,-1.0925,-1.0808,-1.0852,-1.0835,-1.0759,-1.0736,-1.0722,-1.0702,-1.0625,-1.0611,-1.066,-1.0553,-1.0541,-1.0514,-1.0527,-1.0483,-1.048,-1.0443,-1.0445,-1.0447,-1.0528,0,0,0,0,0,0,-1.0942,-1.0927,-1.0928,-1.0853,-1.0833,-1.079,-1.0737,-1.0721,-1.0696,-1.0688,-1.0616,-1.0602,-1.0551,-1.052,-1.051,-1.0521,-1.0477,-1.0442,-1.0444,-1.0446,-1.0524,-1.0532,-1.0539,0,0,0,0,0,-1.0947,-1.0955,-1.0928,-1.0915,-1.0833,-1.0791,-1.078,-1.0721,-1.0697,-1.0697,-1.0648,-1.0605,-1.0527,-1.0518,-1.0506,-1.0516,-1.0441,-1.0443,-1.0446,-1.052,-1.053,-1.0539,0,0,0,0,0,0,-1.1033,-1.0944,-1.0913,-1.0897,-1.0852,-1.0776,-1.0774,-1.0734,-1.0695,-1.0689,-1.0617,-1.0602,-1.0583,-1.0547,-1.0538,-1.0514,-1.0478,-1.0479,-1.0539,-1.0548,-1.0556,-1.0565,-1.0474,0,0,0,0,0,-1.105,-1.1024,-1.0947,-1.094,-1.0919,-1.0851,-1.083,-1.0789,-1.0739,-1.072,-1.0668,-1.0622,-1.0586,-1.0565,-1.0529,-1.0518,-1.05,-1.0518,-1.0526,-1.0533,-1.0535,-1.0526,-1.0533,-1.0456,-1.0456,-1.0456,0,0,-1.1085,-1.1033,-1.1021,-1.0956,-1.0916,-1.089,-1.0835,-1.081,-1.079,-1.0715,-1.0688,-1.0649,-1.0591,-1.0573,-1.0562,-1.0542,-1.0552,-1.0537,-1.0543,-1.054,-1.053,-1.0537,-1.0544,-1.0458,-1.0458,-1.0457,0,0,-1.1135,-1.1093,-1.1083,-1.1044,-1.0985,-1.0939,-1.0937,-1.0866,-1.0837,-1.0808,-1.0752,-1.0726,-1.0668,-1.0629,-1.0602,-1.0637,-1.0596,-1.0627,-1.0669,-1.0661,-1.0667,-1.0672,-1.0685,-1.0691,-1.0629,-1.0629,-1.0629,0,-1.1186,-1.1145,-1.1082,-1.106,-1.1033,-1.0965,-1.0954,-1.0919,-1.0851,-1.0834,-1.0812,-1.0737,-1.0694,-1.0665,-1.0674,-1.0654,-1.0649,-1.0636,-1.0672,-1.0676,-1.068,-1.0691,-1.0696,-1.0633,-1.0633,-1.0632,-1.0632,0,-1.121,-1.1183,-1.1181,-1.1118,-1.109,-1.1074,-1.1008,-1.0988,-1.0948,-1.0905,-1.0876,-1.0821,-1.0773,-1.0763,-1.0724,-1.0729,-1.0718,-1.0685,-1.0648,-1.0693,-1.0702,-1.0706,-1.0639,-1.0638,-1.0637,-1.0635,0,0,-1.1312,-1.1214,-1.1214,-1.1185,-1.1114,-1.1091,-1.1071,-1.1024,-1.1008,-1.0963,-1.0944,-1.0896,-1.0865,-1.0834,-1.079,-1.0784,-1.0815,-1.0751,-1.0749,-1.0766,-1.0817,-1.0843,-1.0849,-1.0787,-1.0788,-1.0788,-1.0822,0,-1.1352,-1.1313,-1.1256,-1.1235,-1.1209,-1.1143,-1.1126,-1.108,-1.1039,-1.101,-1.0963,-1.093,-1.0892,-1.0873,-1.0863,-1.0814,-1.0825,-1.081,-1.0769,-1.0768,-1.0786,-1.0854,-1.0881,-1.0916,-1.0825,-1.0826,-1.0826,0,-1.1393,-1.1353,-1.133,-1.1261,-1.1248,-1.1233,-1.1185,-1.1158,-1.1105,-1.1075,-1.1041,-1.0993,-1.0968,-1.0934,-1.0898,-1.089,-1.0869,-1.0843,-1.0842,-1.0837,-1.0801,-1.0851,-1.0925,-1.0931,-1.0831,-1.0831,-1.0831,0,-1.1471,-1.141,-1.1388,-1.1365,-1.1284,-1.1275,-1.1241,-1.1186,-1.1161,-1.1119,-1.1102,-1.1057,-1.1033,-1.0999,-1.0941,-1.0921,-1.0911,-1.0872,-1.0886,-1.0887,-1.0887,-1.0888,-1.096,-1.0873,-1.0873,-1.0873,-1.0873,0,-1.1522,-1.1511,-1.1422,-1.1409,-1.1394,-1.1328,-1.1315,-1.1274,-1.1226,-1.1204,-1.1144,-1.1124,-1.1047,-1.1018,-1.0972,-1.095,-1.0939,-1.0914,-1.0902,-1.092,-1.0923,-1.0906,-1.0902,-1.0874,-1.0874,-1.0874,-1.0874,0,-1.1606,-1.1546,-1.1519,-1.1444,-1.1425,-1.1417,-1.1353,-1.1338,-1.1292,-1.1264,-1.1254,-1.1183,-1.1145,-1.1083,-1.1028,-1.0997,-1.0983,-1.0962,-1.1002,-1.0994,-1.1011,-1.1011,-1.1075,-1.108,-1.0991,-1.0991,-1.0992,0,-1.1643,-1.1633,-1.1557,-1.1538,-1.1506,-1.1475,-1.145,-1.1383,-1.1359,-1.1297,-1.1289,-1.1247,-1.121,-1.1154,-1.1097,-1.1054,-1.1032,-1.1057,-1.1025,-1.1043,-1.1033,-1.1035,-1.1033,-1.1065,-1.1067,-1.1068,-1.1068,0,-1.1715,-1.1686,-1.1651,-1.1606,-1.1577,-1.1539,-1.1497,-1.1484,-1.1409,-1.1384,-1.1345,-1.1317,-1.126,-1.1219,-1.1168,-1.1132,-1.1088,-1.1079,-1.108,-1.1098,-1.1122,-1.111,-1.1023,-1.1078,-1.1077,-1.1076,-1.1076,-1.1075,-1.1777,-1.1765,-1.171,-1.1673,-1.1634,-1.1597,-1.1578,-1.1531,-1.1497,-1.1446,-1.1409,-1.1373,-1.1318,-1.1246,-1.1212,-1.1182,-1.1162,-1.1164,-1.1164,-1.1166,-1.1173,-1.1126,-1.1173,-1.1172,-1.1172,-1.1172,-1.1171,0,-1.1847,-1.1807,-1.1774,-1.1718,-1.1689,-1.1649,-1.1601,-1.1579,-1.1548,-1.1502,-1.1467,-1.1422,-1.1382,-1.1321,-1.1276,-1.1264,-1.1243,-1.1255,-1.1255,-1.1248,-1.1193,-1.1197,-1.1273,-1.1273,-1.1273,-1.1273,-1.1273,-1.1273,-1.1879,-1.1857,-1.1821,-1.1778,-1.1739,-1.1703,-1.1679,-1.1644,-1.1606,-1.1559,-1.1525,-1.1486,-1.1434,-1.1385,-1.1346,-1.1329,-1.1315,-1.1334,-1.1311,-1.1261,-1.1252,-1.1243,-1.1246,-1.1331,-1.1332,-1.1368,-1.1369,-1.1369]},{"header":{"parameterUnit":"m.s-1","parameterCategory":1,"la1":30.2991,"la2":30.254,"lo1":-89.0895,"lo2":-89.0444,"dy":0.0017,"dx":0.0017,"nx":28,"ny":28,"refTime":"2025-05-24T21:00:00:Z","depth":0,"parameterNumber":3,"parameterNumberName":"V-component_of_WINDS"},"data":[0,0,0,0,0,0,0,0,0,0,0,0,0,0,0,0,0,0,0,0,0,0,0,0,0,0,0,0,0,0,0,0,0,0,0,0,0,0,0,0,0,0,0,0,0,0,0,0,0,0,0,0,0,0,0,0,0,0,2.466,2.4659,0,2.4584,2.4583,2.4582,2.4589,2.459,2.4591,2.4593,2.4509,2.4506,2.4503,0,0,0,0,0,0,0,0,0,0,0,0,0,2.4807,2.4804,2.466,2.4659,2.4658,2.4584,2.4583,2.4582,2.4589,2.459,2.4592,2.4593,2.451,2.4507,2.4503,0,0,0,0,0,0,0,0,0,0,0,0,0,2.4738,2.4804,2.466,2.4653,2.4652,2.4584,2.4583,2.4582,2.4589,2.459,2.4592,2.4594,2.4512,2.4507,2.4502,2.4436,0,0,2.4487,2.4485,0,0,0,0,0,0,0,0,2.4742,2.4733,2.4655,2.4653,2.4652,2.4598,2.4604,2.4533,2.4588,2.4612,2.4593,2.4595,2.4537,2.453,2.4512,2.4432,2.4428,2.4486,2.4483,2.4481,2.448,0,0,0,0,0,0,0,2.4747,2.4736,2.463,2.4654,2.4652,2.4652,2.4644,2.4591,2.4565,2.461,2.4611,2.4602,2.4536,2.4517,2.451,2.4427,2.4486,2.4482,2.4479,2.4477,2.4289,2.4287,0,0,0,0,0,0,2.4754,2.474,2.4632,2.4628,2.4702,2.4648,2.4639,2.4613,2.4566,2.4561,2.46,2.4602,2.4524,2.4516,2.4507,2.4426,2.4481,2.4477,2.4474,2.4291,2.4288,2.4286,0,0,0,0,0,0,2.4757,2.4744,2.4635,2.4684,2.467,2.4643,2.4614,2.4611,2.4591,2.4559,2.4554,2.4585,2.4525,2.4514,2.4454,2.4423,2.4474,2.447,2.4293,2.429,2.4287,2.4263,0,0,0,0,0,0,2.4761,2.4746,2.4721,2.4683,2.4668,2.4585,2.4613,2.4608,2.4583,2.4585,2.4543,2.4538,2.4526,2.4461,2.4449,2.4417,2.4466,2.4295,2.4292,2.4288,2.4266,2.426,2.4254,0,0,0,0,0,2.4767,2.4716,2.472,2.4707,2.4637,2.4583,2.4574,2.4563,2.4581,2.4555,2.4534,2.4539,2.4429,2.4455,2.4441,2.4407,2.4297,2.4293,2.4288,2.4269,2.4261,2.4254,0,0,0,0,0,0,2.4749,2.4711,2.4715,2.4651,2.462,2.4584,2.4552,2.4554,2.4516,2.4519,2.4506,2.4496,2.4435,2.4415,2.4445,2.4341,2.4365,2.4358,2.4356,2.4347,2.4341,2.4346,2.4462,0,0,0,0,0,2.4738,2.4699,2.4668,2.4615,2.4599,2.4578,2.4554,2.4549,2.4516,2.4502,2.4477,2.4443,2.4401,2.4373,2.4333,2.4264,2.4254,2.4234,2.4228,2.4223,2.4216,2.4178,2.4168,2.4271,2.4271,2.4271,0,0,2.4714,2.4689,2.4665,2.4611,2.4586,2.4545,2.4567,2.4522,2.4491,2.4495,2.4436,2.4417,2.4378,2.4314,2.4284,2.4295,2.4186,2.4217,2.4213,2.4209,2.4172,2.4162,2.4153,2.4268,2.4268,2.4269,0,0,2.465,2.4628,2.4581,2.4556,2.452,2.4506,2.4495,2.4458,2.4446,2.4388,2.439,2.4352,2.428,2.4252,2.4229,2.4155,2.4157,2.4142,2.4108,2.4071,2.4062,2.4055,2.4028,2.4018,2.4135,2.4135,2.4135,0,2.4624,2.4564,2.4556,2.4511,2.4486,2.449,2.4441,2.4418,2.4369,2.4351,2.4365,2.4275,2.4249,2.4178,2.416,2.4141,2.4127,2.4146,2.4065,2.4057,2.405,2.4024,2.4014,2.4134,2.4134,2.4134,2.4134,0,2.4534,2.4491,2.4458,2.4412,2.4384,2.4337,2.4321,2.4293,2.429,2.4275,2.4215,2.4185,2.4138,2.4121,2.4117,2.4049,2.4057,2.4068,2.4092,2.4039,2.4014,2.4004,2.4131,2.4132,2.4132,2.4133,0,0,2.4454,2.4406,2.4394,2.4373,2.4334,2.43,2.4253,2.421,2.4185,2.4152,2.4111,2.4051,2.4061,2.4034,2.4027,2.3995,2.3937,2.401,2.4009,2.3996,2.3859,2.385,2.3839,2.3939,2.3937,2.3936,2.3862,0,2.4384,2.4304,2.4295,2.4222,2.4182,2.4186,2.4145,2.4116,2.41,2.4063,2.4045,2.4002,2.402,2.4004,2.3972,2.3951,2.3909,2.3956,2.39,2.3898,2.3908,2.3826,2.3816,2.3747,2.3852,2.385,2.3849,0,2.4292,2.4258,2.4181,2.4148,2.4131,2.4094,2.4053,2.4018,2.3985,2.3976,2.3947,2.3944,2.3895,2.3922,2.3853,2.3885,2.3862,2.3848,2.3845,2.3838,2.3869,2.3815,2.3725,2.3715,2.3834,2.3835,2.3836,0,2.424,2.4175,2.4121,2.4103,2.4063,2.4037,2.4019,2.3987,2.3961,2.3925,2.3908,2.3866,2.3843,2.381,2.3795,2.3817,2.3726,2.3753,2.3716,2.3716,2.3696,2.3697,2.3599,2.3683,2.3683,2.3683,2.3683,0,2.4163,2.4115,2.4097,2.4064,2.401,2.4001,2.3948,2.3931,2.3903,2.3865,2.3865,2.3829,2.3813,2.3774,2.3763,2.3707,2.3696,2.3687,2.3684,2.3686,2.3687,2.3669,2.3673,2.368,2.3681,2.3682,2.3682,0,2.4095,2.4081,2.4022,2.399,2.398,2.3942,2.3914,2.388,2.3866,2.3818,2.3806,2.3783,2.3737,2.3721,2.3665,2.3657,2.3592,2.3593,2.3603,2.3602,2.3566,2.3569,2.3452,2.3436,2.3532,2.3531,2.353,0,2.4046,2.401,2.3974,2.395,2.3931,2.3891,2.3865,2.3855,2.3828,2.3787,2.3758,2.3714,2.3677,2.3604,2.3581,2.3538,2.3538,2.35,2.3531,2.3534,2.3536,2.3538,2.3533,2.3494,2.3493,2.3492,2.3491,0,2.3959,2.3955,2.3918,2.388,2.3849,2.3818,2.3787,2.3767,2.3751,2.3721,2.3675,2.3647,2.3591,2.3545,2.3502,2.3481,2.3483,2.3482,2.3471,2.3472,2.3479,2.3473,2.3586,2.3484,2.3485,2.3485,2.3486,2.3486,2.3898,2.3867,2.3837,2.3796,2.3772,2.3744,2.3711,2.3694,2.3656,2.3611,2.3607,2.3557,2.3524,2.3466,2.3444,2.3404,2.3414,2.3398,2.3394,2.339,2.3387,2.3487,2.3396,2.3396,2.3396,2.3397,2.3397,0,2.3811,2.3792,2.3755,2.3714,2.3681,2.3689,2.3655,2.3627,2.3584,2.3555,2.3519,2.3466,2.3423,2.3398,2.3354,2.3327,2.3326,2.3315,2.3316,2.3312,2.3381,2.3394,2.3316,2.3316,2.3316,2.3316,2.3317,2.3317,2.3762,2.3708,2.37,2.3634,2.3615,2.3568,2.3548,2.3522,2.3498,2.344,2.3405,2.3389,2.336,2.3315,2.3275,2.3268,2.3252,2.3239,2.3234,2.3298,2.3307,2.3315,2.3327,2.3236,2.3236,2.3168,2.3167,2.3166]}]]